Home   Weather   Kralendijk   Past weeks
Flag for Caribbean Netherlands

Past Weather in Kralendijk, Bonaire, Caribbean Netherlands — Yesterday and Last 2 Weeks

Now
82 °F

Partly cloudy.


Feels Like: 89 °F
Forecast: 86 / 80 °F
Wind: 18 mph from East

Location: Flamingo Airport - Bonaire

Current Time: Jul 16, 2019 at 8:45:02 pm

Latest Report: Jul 16, 2019 at 7:55 pm


Visibility: N/A

Pressure: 29.95 "Hg

Humidity: 79%

Dew Point: 75 °F

Location of KralendijkLocation

Past Weather in Kralendijk — Graph

°F

Kralendijk Temperature Yesterday

Maximum temperature yesterday: 86 °F (at 11:55 am)
Minimum temperature yesterday: 77 °F (at 7:55 am)
Average temperature yesterday: 81 °F

High & Low Weather Summary for the Past Weeks

 TemperatureHumidityPressure
High90 °F (Jul 5, 11:55 am)94% (Jul 15, 7:55 am)30.01 "Hg (Jul 15, 7:55 am)
Low77 °F (Jul 15, 7:55 am)55% (Jul 11, 11:55 am)29.83 "Hg (Jul 12, 3:55 pm)
Average83 °F76%29.93 "Hg
* Reported Jul 1 6:55 pm — Jul 16 6:55 pm, Kralendijk. Weather by CustomWeather, © 2019

Note: Actual official high and low records may vary slightly from our data, if they occured in-between our weather recording intervals... More about our weather records

Advertising

Kralendijk Weather History for the Previous 24 Hours

Scroll right to see more
 ConditionsComfort  
Time TempWeatherWind HumidityBarometerVisibility
6:55 pm
Tue, Jul 16
82 °FScattered clouds.21 mph79%29.92 "HgN/A
5:55 pm84 °FScattered clouds.21 mph79%29.92 "HgN/A
4:55 pm84 °FScattered clouds.21 mph74%29.89 "HgN/A
3:55 pm88 °FScattered clouds.22 mph66%29.89 "HgN/A
2:55 pm88 °FPartly sunny.24 mph66%29.92 "HgN/A
1:55 pm88 °FWarm.24 mph66%29.95 "HgN/A
12:55 pm88 °FPassing clouds.28 mph66%29.95 "HgN/A
11:55 am88 °FPassing clouds.22 mph62%29.95 "HgN/A
10:55 am86 °FScattered clouds.22 mph70%29.95 "HgN/A
9:55 am86 °FPassing clouds.22 mph70%29.98 "HgN/A
8:55 am84 °FBroken clouds.17 mph74%29.98 "HgN/A
7:55 am82 °FPassing clouds.17 mph79%29.95 "HgN/A
6:55 am81 °FScattered clouds.15 mph84%29.95 "HgN/A
5:55 am81 °FPartly cloudy.13 mph84%29.92 "HgN/A
4:55 am81 °FPartly cloudy.15 mph84%29.89 "HgN/A
3:55 am81 °FPartly cloudy.14 mph84%29.89 "HgN/A
2:55 am81 °FPassing clouds.15 mph84%29.89 "HgN/A
1:55 am81 °FPassing clouds.15 mph84%29.92 "HgN/A
12:55 am81 °FPassing clouds.14 mph84%29.92 "HgN/A
11:55 pm
Mon, Jul 15
81 °FPartly cloudy.13 mph84%29.95 "HgN/A
10:55 pm81 °FPartly cloudy.16 mph84%29.92 "HgN/A
9:55 pm81 °FWarm.16 mph79%29.92 "HgN/A
8:55 pm81 °FClear.15 mph84%29.89 "HgN/A
Weather by CustomWeather, © 2019

See weather overview

LIVE PARTIAL LUNAR ECLIPSE – Watch the eclipse as it happens